Theta_e
342 341 341 340 340 340 339 338 335 333 334 336 337 337 336 335 335 336 337 337 337 337 337 338 337 336 335 334 334 333 331 328 325 324 324 323 323 323 324 326 326 327 329 329 327 325 327 331 333 331 330 332 334 334 332 331 329 328 327 327 326 327
342 341 341 340 340 339 338 336 334 334 336 336 336 336 334 334 334 336 337 336 336 336 336 336 335 335 334 334 333 332 330 326 324 324 323 322 321 322 323 323 324 324 326 329 328 328 329 330 332 330 330 333 335 334 332 330 329 328 327 326 326 327
342 342 341 340 340 338 337 336 336 335 335 336 335 334 333 334 335 336 337 336 336 336 335 335 334 334 333 333 332 330 329 326 325 325 323 323 322 322 322 323 324 322 324 328 329 329 329 329 331 329 330 334 334 333 331 330 329 327 326 325 326 328
342 342 341 340 339 339 338 337 336 334 334 335 333 332 332 333 334 336 336 336 336 335 335 334 334 334 332 332 332 330 328 327 325 324 322 323 323 323 322 323 323 322 324 328 329 329 328 328 329 328 330 333 333 332 331 329 328 327 325 324 325 328
342 342 340 338 339 339 338 337 335 333 334 333 331 331 332 333 334 335 335 335 336 336 335 335 335 334 331 331 331 329 327 325 323 321 323 323 323 325 323 324 325 323 324 327 328 329 329 328 328 329 330 333 333 332 331 329 328 327 325 323 324 327
341 339 337 337 339 338 337 335 332 332 332 331 331 331 332 333 334 334 334 335 336 336 336 336 336 333 331 330 328 326 325 324 321 322 327 327 326 328 327 328 329 328 328 328 329 331 332 330 330 331 330 332 334 332 330 329 327 327 324 324 325 327
339 338 336 336 337 335 334 332 331 331 331 331 332 332 332 332 334 335 334 334 334 334 335 337 336 333 330 328 326 325 325 325 323 324 329 331 330 331 330 331 331 331 331 331 332 332 332 332 332 332 330 332 334 332 330 329 327 326 324 326 327 328
338 337 336 335 334 332 331 331 330 331 331 331 333 332 331 332 334 335 334 334 333 334 335 336 335 332 330 328 326 326 327 328 328 328 329 331 332 332 332 331 332 332 333 333 332 332 332 332 333 332 331 332 333 332 330 328 326 325 325 327 329 329
337 336 335 333 332 331 331 331 331 332 332 332 332 331 330 331 334 335 334 334 333 333 334 335 334 332 330 328 327 328 330 331 331 330 331 331 332 332 332 332 332 332 333 332 331 331 331 332 333 332 332 333 333 331 330 328 326 325 325 326 328 329
336 334 334 333 331 331 331 331 333 333 332 332 332 331 330 331 334 334 334 334 334 334 334 334 334 333 331 329 329 329 331 333 333 333 332 332 331 331 331 332 332 332 332 331 330 330 331 332 332 331 332 332 332 331 330 328 324 320 321 325 328 329
336 335 334 332 330 332 332 332 332 331 332 333 331 331 332 333 334 333 334 334 335 334 334 334 333 332 331 331 331 331 332 334 334 333 333 332 331 331 331 332 332 331 331 330 329 329 331 331 331 331 331 332 332 332 331 328 322 319 321 324 326 328
336 335 335 333 331 333 333 331 331 329 332 333 330 330 334 334 334 334 334 334 334 334 334 334 333 333 333 332 332 332 332 333 332 332 332 331 331 331 331 331 331 330 329 329 328 328 330 330 330 330 331 331 332 332 332 329 323 320 322 323 323 326
336 335 335 334 333 334 333 331 329 329 330 332 330 331 334 333 333 334 334 334 334 334 334 334 334 333 333 333 332 332 332 331 332 332 332 331 332 331 331 330 330 329 329 328 327 328 329 330 330 330 331 331 331 331 332 329 324 322 323 323 323 326
336 334 334 334 334 334 333 331 330 330 330 331 330 331 333 332 333 335 334 334 333 333 334 334 334 333 332 332 332 332 332 332 333 333 332 332 332 331 330 330 329 328 328 328 327 328 329 329 329 329 329 330 331 331 332 330 324 323 326 324 324 327
335 333 333 334 335 334 332 331 331 332 331 331 332 334 334 334 335 336 335 334 333 333 334 334 334 333 332 332 333 332 332 332 333 333 332 332 332 332 331 330 330 328 328 328 328 329 328 328 328 328 329 329 330 331 331 330 327 328 328 326 324 325
334 333 334 334 335 333 332 332 332 333 332 331 332 334 335 334 335 334 334 334 333 333 334 334 334 333 333 332 333 333 333 333 333 333 332 331 332 332 331 330 329 328 328 329 329 329 329 329 329 329 330 329 330 331 330 330 330 329 329 328 326 325
334 334 334 334 334 333 333 333 332 333 332 331 332 334 334 333 334 333 333 333 333 333 333 334 333 333 333 332 333 334 334 333 333 333 332 332 332 332 331 330 329 328 328 329 329 330 329 329 329 329 330 331 331 331 330 330 329 330 330 329 329 328
334 334 334 334 335 333 333 334 333 333 333 333 334 334 333 333 333 333 333 333 333 333 332 333 333 333 333 333 334 334 334 334 333 332 332 332 332 331 331 329 329 329 329 329 329 329 329 329 329 330 331 331 331 331 330 330 329 329 329 329 330 330
333 334 334 335 334 334 334 335 335 335 335 336 335 334 333 333 334 334 335 334 334 334 333 334 334 334 334 334 335 334 334 333 332 333 332 332 332 331 331 330 329 330 330 330 329 329 330 330 329 330 331 331 330 330 330 329 329 328 328 329 329 329
333 334 334 334 334 334 335 336 336 336 336 336 335 334 334 333 334 334 334 335 334 334 335 334 334 334 334 334 334 334 334 333 332 333 332 332 332 332 331 330 329 329 330 331 331 331 330 330 330 330 330 330 330 330 328 328 328 328 328 328 329 328
334 333 334 334 335 335 335 336 336 337 337 336 334 334 334 333 334 334 334 335 335 335 334 334 334 334 334 334 334 334 333 332 332 333 332 332 332 332 332 330 329 330 330 331 330 331 331 331 330 330 330 330 330 329 328 328 328 329 328 328 328 328
334 334 334 334 335 335 335 335 335 336 335 333 333 332 333 333 334 334 334 335 335 334 334 334 334 334 334 334 334 333 331 331 332 333 333 333 333 332 332 331 329 330 330 330 330 330 331 331 330 329 328 328 330 329 327 327 328 328 328 328 327 326
333 334 334 333 333 334 334 333 333 333 332 332 332 332 332 333 334 334 334 334 334 334 334 334 333 333 333 333 334 332 331 332 332 333 333 332 334 333 332 332 330 330 330 331 331 331 331 330 330 329 329 330 331 330 328 326 326 327 327 327 326 325
332 333 333 333 333 333 333 332 331 330 329 331 332 333 334 333 334 334 333 334 333 333 333 332 332 333 332 333 333 332 332 332 332 332 332 332 333 332 332 332 331 330 330 331 332 331 331 330 329 329 329 330 328 329 331 327 323 323 325 327 325 324
332 332 332 332 333 332 331 330 329 330 331 332 333 333 334 333 333 333 333 333 332 331 332 332 331 332 332 332 332 332 332 332 331 332 333 332 332 332 332 333 332 331 330 331 331 331 331 330 330 329 329 329 327 331 334 328 321 321 322 325 325 324
332 332 331 331 330 329 329 329 329 330 331 331 332 333 332 332 332 332 331 331 330 330 330 330 331 331 332 331 331 331 331 331 331 331 332 332 332 333 332 332 332 331 330 330 330 331 330 330 330 329 329 330 329 331 331 326 325 323 320 322 323 324
332 332 331 329 328 328 328 329 329 330 331 331 331 331 330 329 329 329 329 328 329 328 328 328 328 329 329 329 329 330 330 330 330 330 330 331 332 333 332 332 332 331 330 330 330 331 330 329 330 329 329 330 328 328 327 324 324 323 322 322 321 324
331 331 329 327 328 329 329 329 329 329 330 329 329 329 328 328 328 328 326 326 326 327 326 326 326 326 327 327 327 328 328 329 330 330 329 329 331 332 332 333 333 331 330 330 330 330 330 329 329 329 329 329 327 327 326 323 321 321 322 322 321 322
329 328 326 326 326 327 327 327 328 327 326 326 327 328 328 327 328 328 326 326 326 326 326 326 326 325 326 326 326 326 326 327 328 329 329 329 330 332 332 332 331 330 330 329 329 329 329 328 329 329 329 328 327 326 325 322 319 319 320 321 321 320
328 327 326 324 323 324 324 325 326 325 325 325 326 326 325 324 325 326 327 326 326 325 325 326 326 325 326 325 325 325 325 325 326 327 328 329 330 331 332 331 330 330 330 328 328 329 328 328 328 328 329 328 327 327 325 323 320 319 317 319 320 319
327 327 325 323 324 325 326 326 325 324 324 324 323 323 323 324 324 325 326 325 325 325 325 326 325 325 325 325 325 325 325 325 325 326 328 328 329 330 331 331 329 329 329 328 328 328 328 328 328 328 329 327 326 326 325 323 320 318 317 317 319 319
327 326 325 325 327 328 328 327 326 325 324 322 322 321 323 324 325 325 325 325 325 325 325 325 326 325 325 325 324 324 325 325 326 327 327 328 328 329 329 330 328 328 329 329 328 328 327 328 328 329 329 328 326 326 325 324 320 318 318 317 318 318
328 328 328 329 329 328 328 327 326 326 324 322 322 321 322 323 323 324 324 325 325 325 324 324 324 324 324 325 324 324 325 325 326 327 326 326 327 329 329 329 329 329 330 329 328 327 327 327 328 328 329 327 326 326 326 324 321 318 316 316 317 316
330 330 330 331 329 326 327 326 325 323 321 321 321 319 321 321 322 323 324 324 325 324 323 323 323 324 324 325 324 324 324 324 325 325 325 326 328 329 329 329 329 329 329 329 328 328 327 327 327 328 328 327 327 326 325 324 323 319 314 315 316 316
332 331 330 329 327 324 324 323 322 322 321 321 320 319 320 320 322 323 323 324 324 324 323 322 324 325 324 324 323 323 324 324 324 325 326 327 328 328 328 328 328 328 328 328 327 326 325 325 326 327 327 326 326 325 324 323 323 321 315 312 315 317
332 330 329 329 325 322 322 321 321 322 322 321 320 321 322 321 322 323 323 324 324 323 323 322 324 324 324 324 323 322 323 323 324 326 327 328 328 328 327 327 328 328 327 324 322 320 320 320 322 322 321 320 319 320 319 319 320 322 318 312 314 316
331 329 330 328 324 322 321 322 322 322 322 321 321 322 322 322 322 322 322 323 323 323 323 323 324 324 324 324 323 322 323 322 323 325 326 327 327 327 327 327 327 325 321 317 315 314 314 315 316 315 315 315 315 315 316 316 318 322 319 313 313 314
Wind_Speed
23 23 23 23 22 21 20 19 18 18 16 15 14 14 14 14 13 13 14 15 15 17 17 16 16 15 14 13 11 10 9 10 11 10 9 7 7 6 5 4 3 4 6 8 9 9 10 12 11 10 9 9 11 16 15 14 14 14 14 13 12 12
23 23 24 23 22 21 20 20 19 18 16 15 15 15 15 15 14 15 14 15 16 16 17 16 15 14 14 13 11 10 9 10 10 9 9 8 7 6 6 5 3 3 5 7 8 9 10 11 11 9 8 8 12 16 16 14 13 13 13 12 12 12
23 23 24 23 22 22 21 21 20 18 18 17 16 16 16 15 15 16 15 15 16 16 16 15 14 13 13 13 11 11 10 10 9 8 8 8 7 6 5 5 3 3 5 7 7 9 10 10 11 9 8 8 13 16 14 14 13 13 13 12 12 13
23 23 24 23 22 22 23 22 21 19 19 18 17 17 16 16 16 16 16 16 15 15 15 14 13 12 12 12 12 11 11 10 9 8 8 8 7 6 6 5 4 4 6 7 6 8 9 10 9 7 7 8 12 14 13 13 12 13 12 11 12 13
22 23 23 22 21 21 23 23 21 20 18 17 17 17 16 16 16 16 16 16 16 16 15 14 14 13 12 13 12 11 9 9 9 8 8 8 8 7 7 7 7 6 6 6 5 6 6 7 6 3 5 8 11 12 11 11 12 11 11 10 11 12
22 23 23 22 22 22 22 21 20 18 17 17 16 17 17 17 17 16 16 16 16 15 13 13 13 13 13 12 11 10 9 8 8 8 9 9 8 8 8 7 7 7 6 4 3 2 1 2 2 2 2 7 9 12 11 11 11 10 9 10 11 12
23 24 24 24 23 22 20 19 19 18 17 18 17 17 18 18 17 16 15 15 14 13 13 13 13 14 13 12 10 9 8 8 7 7 8 8 8 7 6 6 5 5 4 2 0 1 2 3 4 4 2 5 9 12 11 11 10 9 10 11 12 12
23 25 25 25 23 20 18 19 19 19 19 19 17 17 18 18 17 15 14 12 12 12 13 14 14 13 12 11 10 9 8 7 7 6 6 7 6 4 4 4 4 3 2 1 2 2 2 3 3 2 4 6 10 12 10 10 10 10 11 11 12 12
23 25 25 24 22 19 19 20 21 21 21 19 18 17 18 19 17 14 12 11 11 13 14 14 13 12 10 10 9 8 7 6 6 5 4 4 3 2 3 3 3 1 2 2 2 1 2 5 5 6 6 7 11 12 10 10 10 10 11 12 12 11
23 24 24 23 22 21 22 24 24 23 22 20 19 18 18 18 16 14 12 12 12 13 14 14 13 10 9 9 8 8 7 5 5 5 3 2 2 2 2 3 2 0 1 1 1 1 5 9 9 9 9 9 12 12 11 10 9 9 10 11 12 11
25 25 25 24 24 23 25 27 26 25 23 21 20 19 18 17 15 13 12 12 13 13 13 13 11 10 10 9 9 9 9 8 6 7 6 5 4 4 4 3 2 1 0 1 3 5 8 11 10 9 11 12 13 13 11 11 10 9 10 11 11 10
25 25 24 24 26 25 27 28 27 27 24 22 21 20 19 17 15 14 13 13 13 12 12 11 9 10 11 9 10 10 10 9 7 8 8 6 6 5 5 4 3 3 2 4 5 7 11 12 11 13 15 14 13 13 12 12 11 10 10 10 10 10
23 23 23 24 27 27 27 29 28 27 25 23 22 19 17 15 14 15 14 13 13 12 11 10 8 9 10 9 9 10 9 8 7 7 7 6 5 5 5 5 4 4 4 6 7 9 12 13 14 15 15 14 13 12 12 12 13 12 10 10 10 10
22 23 23 24 27 27 27 28 27 26 24 23 21 18 16 14 15 16 14 13 12 11 11 9 7 8 10 9 10 10 9 8 6 6 7 7 5 5 5 6 7 6 7 8 8 11 13 14 14 14 13 13 13 12 12 14 14 11 11 11 11 10
21 22 23 25 28 27 27 27 26 24 22 22 21 19 17 15 15 15 13 12 11 9 9 9 7 7 9 10 10 10 9 7 5 5 6 7 6 5 5 7 9 9 10 10 11 14 14 13 13 13 13 13 13 13 14 15 12 9 9 10 11 10
21 24 23 25 27 25 25 26 25 23 21 19 19 18 15 13 14 13 12 11 10 8 8 8 8 7 8 9 9 9 8 6 5 5 6 7 7 5 5 8 8 9 12 14 16 17 16 16 16 15 15 14 14 15 15 14 9 8 8 8 9 9
23 25 25 27 26 25 25 25 23 21 19 17 16 15 13 12 12 11 11 10 9 8 7 7 8 8 8 8 9 8 7 6 5 5 6 8 8 6 7 8 9 11 14 18 19 20 19 18 18 17 16 14 14 14 14 12 7 6 7 7 7 9
24 25 27 28 26 24 23 22 20 19 18 17 15 13 13 12 10 10 10 10 8 8 8 8 8 8 8 8 9 8 7 6 6 6 7 9 9 9 8 9 12 14 16 19 20 20 20 18 19 17 15 13 12 13 12 10 6 5 5 5 5 6
24 27 28 27 26 24 22 22 20 19 17 15 13 13 13 12 11 10 11 10 9 8 8 8 8 8 8 8 8 8 7 6 6 7 8 9 10 10 9 10 13 15 16 17 18 19 19 18 18 17 15 14 12 13 12 9 6 6 6 6 5 5
25 27 27 27 26 25 24 22 20 18 16 15 14 13 12 11 11 11 11 9 8 8 8 7 7 8 8 8 8 7 7 7 7 8 9 9 10 9 10 11 13 15 17 17 16 17 18 18 18 17 15 14 12 12 12 9 8 7 7 7 6 7
27 28 29 29 29 28 27 24 22 20 18 16 15 13 12 12 11 11 11 9 8 8 8 8 8 8 8 8 8 7 7 8 8 9 9 10 10 9 10 12 14 15 16 17 16 15 16 18 17 15 14 13 12 11 11 10 8 5 5 6 7 9
29 30 31 32 31 29 27 26 24 22 20 18 16 15 14 13 12 11 11 9 8 8 8 8 8 8 8 8 9 9 9 9 10 10 10 11 11 11 12 12 14 15 15 15 16 16 17 15 12 12 12 11 9 8 9 10 8 5 6 8 8 9
31 32 32 31 29 27 26 24 23 22 20 18 16 15 14 13 12 11 10 9 8 7 7 8 7 7 7 7 9 10 10 10 11 12 12 12 11 11 13 13 14 16 15 15 15 17 16 11 10 13 12 6 3 4 5 6 9 8 7 9 10 10
31 32 31 30 27 25 24 21 20 20 19 18 17 16 15 14 13 11 11 9 8 7 7 7 6 6 6 7 8 10 11 11 12 12 12 13 13 12 13 13 14 15 16 16 14 15 14 10 14 15 8 3 2 3 2 3 8 8 7 9 10 10
30 30 30 28 25 24 23 22 22 21 21 20 20 20 18 16 14 13 12 11 9 8 8 7 7 7 6 6 7 8 9 10 10 11 10 11 13 13 13 14 15 15 16 16 14 15 12 10 14 13 6 5 3 1 2 4 7 8 7 10 11 11
29 28 27 25 24 24 25 26 28 27 25 23 22 21 21 19 17 15 15 14 14 12 11 10 9 9 8 7 7 7 7 8 8 9 9 10 12 13 13 14 15 14 14 15 15 16 14 11 13 10 7 7 3 2 6 7 5 4 6 9 11 12
28 27 26 26 26 27 28 30 32 31 29 27 24 22 21 19 18 17 17 17 16 15 14 13 12 11 10 9 8 7 7 8 7 8 10 11 12 12 13 13 13 12 12 13 16 17 16 14 13 10 7 5 2 5 11 10 7 4 4 5 9 14
27 27 27 27 28 31 32 32 31 29 28 27 25 23 21 18 17 17 17 17 16 15 13 13 13 12 10 9 8 7 6 6 7 9 11 11 12 11 12 12 11 10 10 11 14 16 17 16 14 11 8 5 2 7 12 12 13 12 7 3 6 10
27 28 28 28 29 30 30 29 28 26 26 25 24 23 21 18 17 17 16 16 15 14 12 12 12 11 10 9 8 7 6 5 6 8 10 12 12 11 11 11 10 10 9 11 12 12 14 17 16 14 11 7 6 11 12 12 16 16 11 6 4 4
28 29 27 26 26 25 26 27 27 26 27 27 26 23 20 18 17 16 16 16 15 14 13 12 12 11 11 10 9 8 5 4 6 8 9 11 12 11 11 10 9 9 9 10 11 10 11 14 16 15 14 11 10 13 13 10 12 14 12 8 5 5
26 27 25 23 21 21 24 26 26 26 27 27 25 22 20 18 17 18 18 16 15 14 13 13 13 12 10 10 9 8 5 4 8 11 9 8 10 11 11 10 9 9 10 10 10 10 9 11 15 14 14 14 14 16 15 12 14 16 12 9 7 6
23 23 21 19 16 17 22 25 25 24 24 24 23 21 20 19 18 19 17 15 14 14 13 13 13 12 10 9 8 9 8 7 10 12 10 8 8 9 10 10 10 10 11 11 10 9 9 11 14 14 15 15 15 17 17 15 17 17 14 17 16 9
22 20 17 14 13 16 21 24 23 22 21 21 20 19 20 19 17 17 16 15 14 12 11 10 10 10 9 9 9 9 11 11 12 11 10 8 8 10 11 12 12 11 12 12 10 10 10 10 12 13 15 16 16 17 14 14 17 15 15 22 22 13
21 17 15 13 14 19 23 23 21 20 20 18 18 18 19 18 17 16 15 15 14 12 10 9 9 10 10 11 10 10 11 11 11 10 8 8 8 10 12 13 13 12 12 12 11 11 10 9 11 13 14 14 14 16 14 12 14 15 18 23 23 17
19 16 14 14 17 21 22 21 20 19 18 17 16 17 17 17 17 16 14 14 14 13 11 10 10 10 11 12 11 10 10 10 9 9 10 10 10 11 12 13 13 12 12 12 12 12 10 10 11 12 13 12 11 14 15 14 15 17 20 23 24 25
20 18 16 15 18 21 21 20 19 19 18 16 15 16 16 15 15 15 14 14 15 14 13 12 12 11 10 10 9 8 9 9 8 9 11 12 11 11 12 13 13 13 13 12 12 12 11 11 13 14 13 12 11 12 15 16 18 20 21 23 25 26
23 21 18 16 18 20 20 19 19 18 16 15 15 15 16 16 15 14 14 15 17 16 14 13 13 12 11 10 10 9 9 9 9 11 13 13 13 13 14 15 15 15 15 14 14 14 14 15 17 17 17 15 13 11 12 16 20 22 22 23 25 25
Wind_Direction
160 160 160 158 155 151 149 150 147 146 144 143 140 140 140 138 138 135 135 134 135 137 137 139 141 143 140 134 132 131 123 113 111 110 108 106 103 99 99 110 119 130 138 135 137 142 143 144 132 110 77 71 129 150 146 135 123 117 114 111 112 115
159 160 159 157 153 150 150 150 146 145 144 145 145 146 145 142 142 140 140 139 140 141 140 141 140 142 140 135 134 132 126 118 114 110 109 107 103 102 99 103 116 134 150 147 139 140 143 146 134 106 74 83 134 149 145 133 123 118 114 112 113 115
160 161 159 155 152 150 151 147 145 147 147 150 151 150 148 147 146 143 142 141 142 140 139 139 136 139 137 135 137 136 132 125 120 113 110 111 109 103 97 97 101 113 147 154 144 138 142 147 136 106 78 99 136 146 143 134 124 119 116 114 117 118
162 162 157 151 149 149 148 145 147 153 153 153 151 151 151 150 150 146 143 143 142 139 138 135 134 139 140 142 143 140 134 128 127 118 113 116 112 100 94 95 92 105 142 152 142 132 138 145 136 105 83 108 139 148 144 136 127 121 120 119 123 126
164 162 154 149 149 146 146 147 152 156 153 151 151 154 154 153 154 151 148 147 145 141 140 139 142 148 150 151 147 140 132 127 123 114 114 118 115 104 98 98 93 101 128 137 125 113 123 139 137 81 89 119 146 155 150 141 132 125 124 126 133 138
161 158 153 152 150 145 147 151 154 155 151 150 157 158 156 159 159 156 153 152 149 144 144 147 153 157 154 152 144 135 130 126 123 115 114 117 114 105 101 101 97 97 106 113 107 86 50 158 209 310 104 134 155 162 158 147 137 128 128 132 137 139
156 155 157 157 153 150 155 158 157 158 158 158 164 163 160 164 164 162 159 157 156 153 156 162 166 161 154 150 142 138 137 131 130 126 121 119 114 108 112 112 108 100 91 83 307 253 249 236 253 267 192 151 164 167 161 150 139 132 133 135 135 132
155 158 159 158 157 157 164 169 166 165 165 164 167 168 165 166 167 166 164 164 166 168 170 173 172 164 156 152 148 146 146 142 138 133 126 124 119 119 135 133 124 104 53 345 305 272 218 213 233 218 176 159 165 169 159 146 138 135 139 139 136 133
156 158 156 156 161 162 166 172 171 170 169 167 170 173 170 169 170 169 169 175 178 178 180 180 175 169 163 158 157 158 154 150 149 145 135 134 137 139 159 155 143 104 27 350 335 304 181 169 152 137 153 163 166 166 152 142 139 140 144 144 142 142
160 158 155 157 163 168 171 172 173 174 170 168 171 174 174 173 173 171 174 185 187 187 189 186 179 177 175 169 169 170 166 166 178 185 187 195 194 205 205 187 178 92 4 347 51 144 163 162 156 144 152 165 165 159 146 139 137 140 145 148 150 151
171 164 159 163 171 175 175 175 176 176 173 169 170 174 178 177 176 179 184 187 189 191 193 189 184 184 182 180 183 184 184 186 196 204 211 227 232 242 232 215 213 154 123 183 146 152 171 169 159 152 160 166 163 157 145 135 129 135 145 151 155 156
175 167 163 171 176 175 175 177 178 177 174 170 172 176 178 178 179 185 189 186 186 189 190 188 186 186 183 185 191 196 201 203 204 204 208 221 229 237 233 216 186 153 150 174 158 158 174 172 155 150 159 165 166 161 148 134 127 133 145 150 154 156
177 173 172 179 178 173 174 178 179 177 175 174 177 176 172 175 182 188 186 182 186 186 185 187 183 183 184 187 192 196 204 204 199 197 202 206 211 222 225 215 187 163 162 172 167 161 166 167 160 153 153 161 168 165 153 139 130 132 145 151 152 153
179 174 171 177 177 172 174 178 179 178 178 180 178 171 171 177 183 192 190 184 190 187 183 186 181 180 181 181 183 187 187 182 179 186 192 193 197 203 206 208 194 166 158 167 162 158 159 158 156 150 149 160 163 161 155 138 130 142 161 156 150 155
180 172 164 168 170 169 173 177 178 175 172 177 177 174 178 181 184 193 193 188 193 193 188 187 183 179 178 178 176 177 175 168 168 177 184 183 185 195 197 196 186 162 152 155 149 148 155 153 146 145 155 163 159 158 148 132 137 169 176 156 151 161
176 175 170 170 170 170 174 175 176 172 167 173 178 176 177 182 186 192 193 192 196 201 199 192 188 178 175 180 178 174 171 170 174 173 176 174 172 187 191 175 168 163 155 149 146 144 148 149 145 146 152 153 152 153 141 134 158 187 174 159 158 166
166 172 171 172 172 169 172 173 173 171 170 175 179 177 178 185 188 187 189 193 195 202 208 203 194 181 179 185 184 178 172 176 182 175 169 167 167 174 178 163 150 159 158 148 146 143 142 145 144 143 143 140 140 143 140 142 159 173 174 176 169 169
166 167 165 167 168 166 166 168 170 171 172 173 174 175 179 184 183 179 184 192 195 194 199 208 203 192 191 191 190 185 181 182 182 179 171 166 165 163 168 168 152 153 156 150 147 143 139 140 138 136 133 131 132 132 138 143 138 147 163 162 161 170
167 164 162 163 164 162 161 164 167 169 171 171 171 175 179 183 183 182 187 190 188 183 193 207 205 203 203 200 197 191 189 189 182 181 177 170 168 162 166 175 160 151 150 149 149 145 139 137 134 132 129 126 127 128 136 141 126 129 133 129 139 152
160 161 161 162 161 160 162 166 169 172 175 174 172 174 178 183 185 186 188 186 181 182 195 200 194 200 206 205 203 202 201 197 189 185 180 176 172 167 169 173 163 152 147 143 145 144 140 138 131 125 124 124 124 124 131 133 126 129 125 122 128 132
155 157 158 159 159 161 166 170 174 177 178 175 175 175 177 183 187 186 183 182 183 183 186 185 187 195 200 201 198 200 201 194 188 181 176 173 169 166 166 165 159 152 149 144 144 145 143 140 129 118 116 116 116 117 123 129 133 143 133 124 126 128
158 159 159 159 161 165 169 172 175 178 177 174 173 170 168 172 177 176 172 171 171 173 177 178 184 191 193 194 189 188 190 186 180 171 163 164 166 166 164 164 160 153 150 146 146 150 150 144 132 126 122 111 101 100 113 124 122 132 140 130 127 128
163 165 164 163 165 167 171 172 171 170 168 167 165 161 158 158 161 158 151 148 150 161 176 177 178 185 189 187 186 187 183 178 178 172 164 166 173 172 165 166 167 162 155 148 148 155 159 155 144 136 123 110 101 88 94 105 97 105 142 140 130 130
165 167 167 167 168 167 168 168 164 160 155 154 154 153 149 145 147 144 136 136 138 146 161 168 167 170 179 177 179 188 183 174 176 177 172 173 181 180 172 172 174 173 167 158 154 160 168 167 156 148 121 93 110 90 96 109 84 85 138 154 139 132
166 167 167 168 167 164 163 163 160 155 151 149 147 146 144 143 143 139 134 133 132 136 140 145 150 152 162 166 168 180 182 176 176 181 181 182 186 183 179 182 181 183 184 177 170 167 174 174 165 164 146 128 109 73 202 151 95 74 115 155 155 138
168 168 167 165 163 164 163 159 156 154 153 149 146 147 145 143 142 135 129 125 121 121 121 123 131 136 140 145 151 157 163 168 176 185 185 184 187 182 181 186 185 187 193 193 186 176 175 176 174 174 160 154 145 178 178 145 112 72 94 134 153 146
172 169 165 160 160 160 156 152 152 154 154 151 149 149 143 137 135 131 126 121 118 117 114 113 113 116 119 119 126 132 140 152 163 177 182 183 186 184 183 185 184 189 193 195 193 185 182 180 178 177 165 162 169 167 163 148 140 139 97 98 131 140
171 166 161 156 155 154 151 150 152 153 153 151 147 145 141 138 136 132 126 123 122 120 116 112 109 108 109 105 109 115 124 145 162 174 182 187 187 186 189 189 185 191 195 198 199 195 193 189 185 182 167 157 164 154 153 149 142 133 121 87 107 130
167 163 159 155 154 155 155 154 152 147 144 143 141 140 140 141 142 137 131 127 128 128 128 129 125 119 113 107 108 111 115 137 162 176 183 186 187 185 189 190 187 191 198 199 200 202 204 199 195 192 180 167 159 145 139 143 141 129 123 127 121 133
163 161 160 160 160 160 157 153 147 142 139 137 138 140 141 141 143 142 138 136 133 130 130 136 138 131 123 116 113 113 115 138 157 165 172 179 185 187 186 183 181 185 189 189 188 192 206 205 200 198 192 179 164 151 139 139 145 136 125 122 131 152
160 161 162 164 162 158 155 151 146 142 140 139 140 141 139 139 143 144 144 142 137 130 125 129 135 135 133 131 127 123 120 143 160 161 160 166 175 181 184 183 180 179 178 179 178 179 195 204 200 200 198 191 180 171 163 160 160 151 141 131 132 145
160 162 163 165 164 160 158 154 151 148 145 146 147 145 141 139 143 146 147 145 140 133 126 125 133 136 137 139 136 133 129 135 150 154 153 155 160 170 182 186 180 174 172 172 173 176 183 192 195 195 197 197 192 184 177 172 167 163 162 154 147 145
159 160 163 166 167 166 163 158 156 154 152 152 152 151 148 145 147 150 152 152 149 144 137 132 135 136 135 138 138 135 132 131 137 145 153 158 157 163 176 183 176 167 167 168 172 180 185 190 195 193 190 193 194 189 181 172 171 172 167 155 147 142
155 158 162 164 165 163 161 160 160 157 155 155 155 156 156 155 156 156 157 159 159 158 153 144 139 136 134 140 141 134 132 132 136 146 158 163 156 156 168 173 168 164 166 170 172 177 182 182 184 186 186 190 195 192 184 179 181 175 163 156 151 147
152 156 159 160 163 161 158 160 161 157 155 155 153 154 155 156 158 160 163 164 161 157 153 148 144 137 136 142 139 134 135 132 134 146 156 158 151 148 159 164 164 163 165 167 168 169 171 166 167 175 181 185 188 192 196 200 198 185 171 164 160 158
156 160 160 159 162 161 160 161 160 157 156 155 153 153 156 157 160 166 172 168 160 155 152 153 150 144 142 145 141 143 146 136 130 140 148 154 153 150 157 159 160 160 156 159 161 159 159 156 154 156 156 156 163 180 195 197 193 189 182 174 170 168
162 162 157 155 159 162 162 163 162 160 160 159 159 163 165 165 166 173 177 170 161 157 156 157 155 151 149 147 142 147 148 138 136 140 142 149 152 152 155 154 153 151 147 150 151 146 146 143 140 140 135 127 127 145 169 178 179 183 183 179 177 176